MST,Max TemperatureF,Mean TemperatureF,Min TemperatureF,Max Dew PointF,MeanDew PointF,Min DewpointF,Max Humidity, Mean Humidity, Min Humidity, Max Sea Level PressureIn, Mean Sea Level PressureIn, Min Sea Level PressureIn, Max VisibilityMiles, Mean VisibilityMiles, Min VisibilityMiles, Max Wind SpeedMPH, Mean Wind SpeedMPH, Max Gust SpeedMPH,PrecipitationIn, CloudCover, Events, WindDirDegrees
2013-11-1,59,50,41,54,49,41,100,94,72,30.30,30.17,29.95,10,5,0,7,1,,0.10,6,Fog-Rain,138
2013-11-2,55,50,44,52,46,39,100,82,63,30.10,29.96,29.75,10,7,2,23,8,32,0.55,7,Rain,248
2013-11-3,50,44,39,46,42,37,100,92,71,30.19,30.15,30.08,10,9,1,15,4,28,0.41,7,Rain,159
2013-11-4,50,46,42,50,47,43,100,97,87,30.18,30.15,30.10,10,7,2,0,0,,0.26,8,Rain,-1
2013-11-5,53,52,50,54,51,48,100,97,88,30.25,30.15,30.08,10,6,2,12,1,,0.27,8,Rain,202
2013-11-6,55,52,50,54,52,50,100,98,88,30.29,30.23,30.12,10,6,1,4,0,,0.23,8,Rain,60
2013-11-7,55,52,48,54,49,43,100,90,67,30.14,30.02,29.88,10,7,3,20,7,40,0.91,8,Rain,201
2013-11-8,50,46,41,46,45,41,100,94,82,30.22,30.18,30.14,10,9,4,7,2,,0.28,6,Rain,140
2013-11-9,51,44,37,46,42,37,100,95,71,30.15,30.08,30.04,10,9,0,6,1,,0.00,5,Fog,144
2013-11-10,60,51,42,54,47,43,100,90,63,30.08,30.05,30.03,10,9,0,5,1,,0.00,3,Fog,136
2013-11-11,62,50,39,50,45,39,100,84,52,30.11,30.05,29.98,10,8,0,14,3,17,0.00,2,Fog,112
2013-11-12,59,54,48,55,52,45,100,94,76,30.43,30.25,30.02,10,9,2,0,0,,0.25,8,Rain,-1
2013-11-13,57,52,46,52,50,46,100,95,82,30.49,30.44,30.35,10,8,2,4,0,,0.10,6,Rain,240
2013-11-14,51,46,42,46,45,43,100,95,82,30.35,30.22,30.14,10,8,0,0,0,,0.08,7,Fog-Rain,-1
2013-11-15,50,44,37,50,44,37,100,97,87,30.15,29.96,29.63,10,6,0,17,2,25,0.51,8,Fog-Rain,218
2013-11-16,51,48,44,50,43,37,100,84,58,29.86,29.74,29.62,10,8,2,20,5,28,0.30,7,Rain,250
2013-11-17,53,48,44,50,48,45,100,96,87,29.99,29.95,29.87,10,6,2,17,5,23,0.24,8,Rain,180
2013-11-18,55,52,50,52,50,48,100,94,88,29.98,29.84,29.70,10,7,3,25,12,36,0.61,8,Rain,173
2013-11-19,53,44,33,52,44,34,100,88,71,30.04,29.85,29.72,10,8,3,21,11,31,0.55,6,Rain,273
2013-11-20,48,39,30,36,30,27,100,82,43,30.40,30.23,30.05,10,7,0,12,1,16,0.00,2,Fog,37
2013-11-21,50,38,26,32,24,10,100,73,20,30.57,30.51,30.40,10,10,10,12,1,,0.00,0,,35
2013-11-22,53,40,28,27,21,12,93,54,24,30.54,30.45,30.35,10,10,10,21,4,26,0.00,0,,66
2013-11-23,59,46,32,34,25,14,93,55,23,30.35,30.23,30.13,10,10,10,18,7,25,0.00,0,,81
2013-11-24,60,46,32,39,32,28,100,75,31,30.23,30.16,30.11,10,10,7,0,0,,0.00,0,,-1
2013-11-25,57,42,28,37,33,28,100,83,41,30.31,30.28,30.23,10,10,10,0,0,,0.00,0,,-1
2013-11-26,50,41,32,45,37,32,100,89,62,30.27,30.17,30.07,10,10,7,8,0,,0.00,4,,325
2013-11-27,62,48,35,45,40,36,100,82,37,30.06,29.98,29.92,10,10,7,0,0,,0.00,1,,-1
2013-11-28,57,44,32,41,36,32,100,84,44,30.20,30.09,29.99,10,10,5,0,0,,0.00,0,,-1
2013-11-29,50,40,30,45,38,30,100,94,76,30.36,30.30,30.20,10,9,3,5,0,,0.00,5,Rain,260
2013-11-30,51,46,42,50,45,41,100,94,76,30.40,30.35,30.25,10,8,2,0,0,,0.03,8,Rain,-1